Location: Bh?mavarapp?du
(16.7041°N, 80.6518°E)
Time: 01:12:11
(UTC+00:00)

Cosmos 1626 - Pass Details

Date: 21 April 2021
Orbit: 488 x 494 km, 82.5° (Epoch: 07 May)

Event Time Altitude Azimuth Distance (km) Brightness Sun altitude
Rises 23:26:44 0° 184° (S) 2,561 5.5 -12.6°
Reaches altitude 10° 23:28:50 10° 185° (S) 1,680 4.6 -12.1°
Maximum altitude 23:32:31 88° 273° (W) 496 2.0 -11.3°
Drops below altitude 10° 23:36:12 10° 4° (N) 1,682 5.1 -10.4°
Sets 23:38:18 0° 5° (N) 2,564 6.0 -9.9°
